Regional Weather Roundup
Issued by NWS

Home | Current Version | Previous Version | Graphics & Text | Print | Product List | Glossary Off
Versions: 1 2 3 4 5 6 7 8 9 10 11 12 13 14 15 16 17 18 19 20 21 22 23 24 25 26 27 28 29 30 31 32 33 34 35 36 37 38 39 40 41 42 43 44 45 46 47 48 49 50

000
ASUS43 KFSD 091510
RWRSD

WEATHER ROUNDUP FOR SOUTH DAKOTA
NATIONAL WEATHER SERVICE SIOUX FALLS SD
900 AM CST FRI DEC 09 2016

NOTE: "FAIR" INDICATES FEW OR NO CLOUDS BELOW 12,000 FEET WITH NO
SIGNIFICANT WEATHER AND/OR OBSTRUCTIONS TO VISIBILITY.


SDZ001>005-009-010-012>017-091600-
NORTHWEST AND NORTH CENTRAL SOUTH DAKOTA

CITY           SKY/WX    TMP DP  RH WIND       PRES   REMARKS
BUFFALO          N/A     -5  -9  83 E7        30.29R WCI -19
FAITH            N/A     -2  -7  79 NE9       30.41F WCI -18
MOBRIDGE       CLOUDY    -3  -9  75 N6        30.52R WCI -15
$$

SDZ012>016-024>037-041>051-057-063-072>074-091600-
SOUTHWEST AND SOUTH CENTRAL SOUTH DAKOTA

CITY           SKY/WX    TMP DP  RH WIND       PRES   REMARKS
RAPID CTY ARPT CLOUDY    -1  -6  79 N12       30.33R WCI -18
PIERRE         CLOUDY     2  -3  80 E8        30.51R WCI -12
CUSTER         CLOUDY     3  -2  79 CALM      30.05R
ELLSWORTH AFB  CLOUDY    -2  -6  82 N9        30.31  WCI -18
PHILIP         LGT SNOW   2  -1  88 E12       30.43R FOG     WCI -15
PINE RIDGE     CLOUDY     6   3  87 NW6       30.25R WCI  -4
SPEARFISH      FAIR      -6 -11  77 CALM      30.25S
WINNER         CLOUDY     6   1  80 SE12      30.45F WCI  -9
$$

SDZ004>011-016>023-039-040-091600-
NORTHEAST SOUTH DAKOTA

CITY           SKY/WX    TMP DP  RH WIND       PRES   REMARKS
ABERDEEN       CLOUDY    -2  -9  72 NW5       30.59R WCI -12
WATERTOWN      CLOUDY    -2  -7  79 NW6       30.51R WCI -14
BROOKINGS      CLOUDY    -1  -5  82 NW5       30.53S WCI -11
SISSETON         N/A      0  -6  76 NW8       30.56S WCI -14
$$

SDZ017-020-022-023-036>040-048>070-091600-
SOUTHEAST SOUTH DAKOTA

CITY           SKY/WX    TMP DP  RH WIND       PRES   REMARKS
SIOUX FALLS    CLOUDY     3  -1  83 CALM      30.57R
HURON          CLOUDY     1  -4  79 N5        30.59S WCI  -9
CHAMBERLAIN    CLOUDY     5   0  81 E7        30.52F WCI  -7
MITCHELL       CLOUDY     2  -3  80 CALM      30.60S
YANKTON        PTCLDY     3  -2  78 CALM      30.58F
$$

ABBREVIATIONS USED IN REMARKS
   TC - TEMPERATURE IN CELSIUS
  WCI - WIND CHILL INDEX
   HX - HEAT INDEX
  VSB - VISIBILITY





USA.gov is the U.S. government's official web portal to all federal, state and local government web resources and services.